Home > Time Zones > World Clock > Weather > Latvia > Riga > Past weeks

Flag for Latvia Weather past 2 weeks in Riga, Latvia

Now
23 °F

Overcast.


Feels Like: 18 °F
Forecast: 24 / 29 °F
Wind: 3 mph from Southwest

Location: Riga Airport

Current Time: Jan 26, 2015 at 9:22:19 AM

Latest Report: Jan 26, 2015 at 8:50 AM


Visibility: 5 mi

Pressure: 30.12 "Hg

Humidity: 100%

Dew point: 23 °F

Location of RigaLocation

Historic Weather in Riga — Graph

°F

Riga temperature yesterday

Maximum temperature yesterday: 30 °F (at 1:20 PM)
Minimum temperature yesterday: 25 °F (at 12:20 AM)
Average temperature yesterday: 28 °F

Past Weeks' High & Low Weather Summary

 TemperatureHumidityPressure
High41 °F (Jan 13, 2:50 AM)100% (Jan 11, 8:20 AM)30.27 "Hg (Jan 11, 8:20 AM)
Low18 °F (Jan 24, 12:20 AM)64% (Jan 12, 9:20 AM)28.68 "Hg (Jan 11, 8:20 AM)
Average32 °F94%29.86 "Hg
* Reported Jan 11 8:20 AM — Jan 26 8:20 AM, Riga, Weather by CustomWeather, © 2014

Note: Actual official high and low records may vary slightly from our data, if they occured in-between our weather recording intervals... More about our weather records

Advertising

Riga weather history for previous 24 hours

 ConditionsComfort  
Time TempWeatherWind HumidityBarometerVisibility
8:20 AM
Jan 26
23 °FOvercast.3 mph100%30.12 "Hg6 mi
7:50 AM23 °FOvercast.2 mph100%30.12 "HgN/A
7:20 AM21 °FPassing clouds.3 mph100%30.12 "Hg6 mi
6:50 AM21 °FPassing clouds.2 mph100%30.12 "Hg6 mi
6:20 AM21 °FPartly cloudy.1 mph100%30.15 "Hg5 mi
5:20 AM23 °FIce fog.2 mph100%30.12 "Hg2 mi
4:50 AM27 °FPartly cloudy.3 mph100%30.12 "Hg5 mi
4:20 AM23 °FIce fog.2 mph100%30.12 "Hg1 mi
3:50 AM23 °FCold.2 mph100%30.12 "Hg1 mi
3:20 AM27 °FChilly.1 mph100%30.15 "Hg1 mi
2:50 AM28 °FLow clouds.2 mph100%30.15 "Hg5 mi
2:20 AM28 °FLow clouds.2 mph100%30.15 "Hg5 mi
1:50 AM28 °FLow clouds.No wind100%30.15 "Hg5 mi
1:20 AM28 °FMostly cloudy.No wind100%30.15 "Hg5 mi
12:50 AM28 °FMostly cloudy.No wind100%30.15 "Hg5 mi
12:20 AM28 °FMostly cloudy.2 mph100%30.15 "Hg5 mi
11:20 PM
Jan 25
28 °FLow clouds.1 mph100%30.15 "Hg5 mi
10:50 PM28 °FLow clouds.No wind100%30.15 "Hg4 mi
10:20 PM28 °FLow clouds.1 mph100%30.15 "Hg4 mi
9:50 PM28 °FLight snow. Low clouds.1 mph100%30.15 "Hg4 mi
9:20 PM28 °FLight snow. Low clouds.2 mph100%30.15 "Hg4 mi
8:50 PM28 °FLight snow. Ice fog.2 mph100%30.15 "Hg3 mi
8:20 PM28 °FLight snow. Ice fog.No wind100%30.15 "Hg3 mi
7:50 PM28 °FLight snow. Ice fog.No wind100%30.15 "Hg3 mi
7:20 PM28 °FSnow. Low clouds.2 mph100%30.15 "Hg3 mi
6:50 PM28 °FSnow. Mostly cloudy.2 mph100%30.15 "Hg3 mi
6:20 PM28 °FSnow. Mostly cloudy.1 mph100%30.15 "Hg2 mi
5:50 PM28 °FSnow. Overcast.2 mph100%30.15 "Hg2 mi
5:20 PM28 °FSnow. Mostly cloudy.No wind100%30.12 "Hg3 mi
4:50 PM28 °FSnow. Overcast.No wind100%30.12 "Hg1 mi
4:20 PM28 °FSnow. Mostly cloudy.2 mph100%30.12 "Hg1 mi
3:50 PM28 °FChilly.3 mph100%30.12 "Hg1 mi
3:20 PM28 °FLight snow. Mostly cloudy.5 mph100%30.12 "Hg6 mi
2:50 PM28 °FSnow. Cloudy.5 mph100%30.12 "Hg2 mi
2:20 PM30 °FSnow. Cloudy.5 mph93%30.12 "Hg2 mi
1:50 PM28 °FLight snow. Cloudy.2 mph100%30.12 "Hg4 mi
1:20 PM30 °FSnow. Cloudy.No wind93%30.12 "Hg5 mi
12:50 PM28 °FSnow. Mostly cloudy.2 mph100%30.12 "Hg2 mi
12:20 PM28 °FLight snow. Mostly cloudy.2 mph93%30.12 "Hg5 mi
11:50 AM28 °FLight snow. Partly sunny.2 mph93%30.12 "Hg5 mi
11:20 AM28 °FLight snow. Partly sunny.No wind93%30.12 "Hg4 mi
10:50 AM28 °FLight snow. Partly sunny.1 mph93%30.12 "Hg4 mi
10:20 AM27 °FLight snow. Ice fog.No wind100%30.12 "Hg2 mi
9:50 AM27 °FLight snow. Ice fog.No wind100%30.12 "Hg3 mi
9:20 AM27 °FLight snow. Mostly cloudy.No wind100%30.12 "Hg4 mi
Weather by CustomWeather, © 2014

See weather overviewHow to use our weather pages